Weather History for Jamestown, ND

Change the Weather History Date:

Sunday, October 30, 2011

  Actual Average Record
Temperature  
Mean Temperature 36 °F 37 °F  
Max Temperature 44 °F 48 °F 81 °F (1950)
Min Temperature 28 °F 27 °F -3 °F (1925)
Degree Days  
Heating Degree Days 29 28  
Month to date heating degree days 476 623  
Since 1 July heating degree days 703 941  
Cooling Degree Days 0 0  
Month to date cooling degree days 17 0  
Year to date cooling degree days 497 445  
Moisture  
Dew Point 31 °F    
Average Humidity 77    
Maximum Humidity 92    
Minimum Humidity 62    
Precipitation  
Precipitation 0.00 in 0.04 in 0.50 in (1971)
Month to date precipitation 1.18 1.52  
Year to date precipitation 21.49 17.71  
Sea Level Pressure  
Sea Level Pressure 29.91 in    
Wind  
Wind Speed 12 mph (NW)    
Max Wind Speed 26 mph    
Max Gust Speed 32 mph    
Visibility 10 miles    
Events      
T = Trace of Precipitation, MM = Missing Value Source: NWS Daily Summary

Daily Weather History Graph

Daily Weather History Graph

Search for Another Location

Airport:

Trip Planner

Search our weather history database for the weather conditions in past years. The results will help you decide how hot, cold, wet, or windy it might be!

Date:

Astronomy

Oct. 30, 2011 Rise Set
Actual Time 8:13 AM CDT 6:22 PM CDT
Civil Twilight 7:42 AM CDT 6:53 PM CDT
Nautical Twilight 7:06 AM CDT 7:29 PM CDT
Astronomical Twilight 6:31 AM CDT 8:04 PM CDT
Moon 12:46 PM CDT (10/30) 9:41 PM CDT (10/30)
Length of Visible Light 11h 11m
Length of Day
10h 08m
Waxing Crescent, 20% of the Moon is Illuminated
Oct 30
Waxing Crescent
Nov 2
First Quarter
Nov 10
Full
Nov 18
Last Quarter
Nov 25
New

Hourly Weather History & Observations

Time (CDT) Temp. Windchill Dew Point Humidity Pressure Visibility Wind Dir Wind Speed Gust Speed Precip Events Conditions
12:56 AM 43.0 °F 35.1 °F 37.0 °F 80% 29.82 in 10.0 mi WNW 17.3 mph - N/A   Mostly Cloudy
1:34 AM 42.8 °F 36.2 °F 37.4 °F 81% 29.79 in 10.0 mi WNW 12.7 mph - N/A   Overcast
1:54 AM 42.8 °F 35.4 °F 35.6 °F 76% 29.80 in 10.0 mi NW 15.0 mph 21.9 mph N/A   Overcast
1:56 AM 42.8 °F 35.8 °F 35.6 °F 76% 29.80 in 10.0 mi NW 13.8 mph - N/A   Overcast
2:56 AM 39.9 °F 33.4 °F 34.0 °F 79% 29.84 in 10.0 mi WNW 10.4 mph - N/A   Overcast
3:56 AM 39.2 °F 31.6 °F 33.8 °F 81% 29.80 in 10.0 mi WNW 12.7 mph - N/A   Overcast
4:56 AM 37.4 °F 29.3 °F 32.0 °F 81% 29.82 in 10.0 mi WNW 12.7 mph - N/A   Overcast
5:56 AM 35.6 °F 26.2 °F 30.2 °F 81% 29.83 in 10.0 mi WNW 15.0 mph - N/A   Partly Cloudy
6:56 AM 33.8 °F 24.3 °F 30.2 °F 87% 29.84 in 10.0 mi WNW 13.8 mph - N/A   Clear
7:56 AM 36.0 °F 26.3 °F 30.0 °F 79% 29.89 in 10.0 mi WNW 16.1 mph - N/A   Overcast
8:56 AM 35.6 °F 25.5 °F 30.2 °F 81% 29.86 in 10.0 mi WNW 17.3 mph - N/A   Overcast
9:56 AM 37.9 °F 30.0 °F 30.9 °F 76% 29.91 in 10.0 mi WNW 12.7 mph - N/A   Overcast
10:56 AM 39.2 °F 30.2 °F 30.2 °F 70% 29.88 in 10.0 mi WNW 17.3 mph 23.0 mph N/A   Overcast
11:56 AM 39.9 °F 30.8 °F 30.9 °F 70% 29.93 in 10.0 mi NW 18.4 mph 31.1 mph N/A   Overcast
12:26 PM 41.0 °F 31.1 °F 30.2 °F 65% 29.90 in 10.0 mi NW 23.0 mph 29.9 mph N/A   Overcast
12:56 PM 41.0 °F 32.5 °F 30.9 °F 67% 29.94 in 10.0 mi NW 17.3 mph - N/A   Overcast
1:56 PM 39.9 °F 30.2 °F 30.0 °F 68% 29.94 in 10.0 mi NW 20.7 mph 29.9 mph N/A   Overcast
2:56 PM 39.9 °F 30.5 °F 28.9 °F 65% 29.96 in 10.0 mi NNW 19.6 mph 29.9 mph N/A   Overcast
3:24 PM 42.8 °F 35.1 °F 30.2 °F 61% 29.92 in 10.0 mi NNW 16.1 mph 24.2 mph N/A   Overcast
3:56 PM 42.8 °F 35.8 °F 30.2 °F 61% 29.93 in 10.0 mi North 13.8 mph - N/A   Overcast
4:56 PM 43.0 °F 36.8 °F 32.0 °F 65% 29.98 in 10.0 mi North 11.5 mph - N/A   Scattered Clouds
5:56 PM 39.9 °F 35.1 °F 30.9 °F 70% 30.00 in 10.0 mi North 6.9 mph - N/A   Partly Cloudy
6:56 PM 34.0 °F - 28.9 °F 82% 30.02 in 10.0 mi Calm Calm - N/A   Clear
7:56 PM 32.0 °F - 28.0 °F 85% 30.03 in 10.0 mi Calm Calm - N/A   Partly Cloudy
8:56 PM 28.9 °F - 26.1 °F 89% 30.02 in 10.0 mi Calm Calm - N/A   Clear
9:56 PM 30.0 °F 24.1 °F 27.0 °F 88% 30.02 in 10.0 mi South 5.8 mph - N/A   Clear
10:56 PM 30.0 °F 25.2 °F 28.0 °F 92% 30.01 in 10.0 mi South 4.6 mph - N/A   Clear
11:56 PM 35.1 °F 27.9 °F 30.0 °F 82% 30.01 in 10.0 mi SSW 9.2 mph - N/A   Clear